Weather History for Ely, MN

Change the Weather History Date:

Tuesday, April 29, 2014

  Actual Average Record
Temperature  
Mean Temperature 38 °F -  
Max Temperature 44 °F 56 °F 80 °F (2001)
Min Temperature 32 °F 30 °F 19 °F (2008)
Degree Days  
Heating Degree Days 27    
Moisture  
Dew Point 25 °F    
Average Humidity 66    
Maximum Humidity 100    
Minimum Humidity 29    
Precipitation  
Precipitation 0.20 in - - ()
Sea Level Pressure  
Sea Level Pressure 29.91 in    
Wind  
Wind Speed 10 mph (NE)    
Max Wind Speed 15 mph    
Max Gust Speed 24 mph    
Visibility 9 miles    
Events Rain , Snow    
Averages and records for this station are not official NWS values.
T = Trace of Precipitation, MM = Missing Value Source: NWS Daily Summary

Daily Weather History Graph

Daily Weather History Graph

Search for Another Location

Airport:

Trip Planner

Search our weather history database for the weather conditions in past years. The results will help you decide how hot, cold, wet, or windy it might be!

Date:

Astronomy

Apr. 29, 2014 Rise Set
Actual Time 5:52 AM CDT 8:17 PM CDT
Civil Twilight 5:18 AM CDT 8:51 PM CDT
Nautical Twilight 4:35 AM CDT 9:34 PM CDT
Astronomical Twilight 3:46 AM CDT 10:24 PM CDT
Moon 6:12 AM CDT (4/29) 8:59 PM CDT (4/29)
Length of Visible Light 15h 33m
Length of Day
14h 24m
New Moon, 0% of the Moon is Illuminated
Apr 29
New Moon
May 6
First Quarter
May 14
Full
May 21
Last Quarter
May 28
New

Hourly Weather History & Observations

Time (CDT) Temp. Windchill Dew Point Humidity Pressure Visibility Wind Dir Wind Speed Gust Speed Precip Events Conditions
12:13 AM 42.8 °F 36.6 °F 12.2 °F 29% 29.98 in 10.0 mi ENE 11.5 mph 21.9 mph N/A   Clear
12:33 AM 41.0 °F 35.2 °F 12.2 °F 31% 29.97 in 10.0 mi ENE 9.2 mph 17.3 mph N/A   Clear
12:53 AM 41.0 °F 35.2 °F 12.2 °F 31% 29.97 in 10.0 mi ENE 9.2 mph 16.1 mph N/A   Clear
1:13 AM 41.0 °F 35.2 °F 12.2 °F 31% 29.97 in 10.0 mi ENE 9.2 mph - N/A   Clear
1:33 AM 39.2 °F 31.6 °F 12.2 °F 33% 29.97 in 10.0 mi ENE 12.7 mph 16.1 mph N/A   Clear
1:53 AM 39.2 °F 32.0 °F 14.0 °F 36% 29.97 in 10.0 mi ENE 11.5 mph 19.6 mph N/A   Clear
2:13 AM 39.2 °F 32.5 °F 14.0 °F 36% 29.97 in 10.0 mi ENE 10.4 mph 17.3 mph N/A   Clear
2:33 AM 37.4 °F 31.4 °F 15.8 °F 41% 29.97 in 10.0 mi ENE 8.1 mph - N/A   Clear
2:53 AM 37.4 °F 31.4 °F 15.8 °F 41% 29.97 in 10.0 mi NE 8.1 mph - N/A   Clear
3:13 AM 35.6 °F 29.2 °F 17.6 °F 48% 29.97 in 10.0 mi NE 8.1 mph - N/A   Clear
3:33 AM 35.6 °F 28.6 °F 17.6 °F 48% 29.97 in 10.0 mi ENE 9.2 mph 16.1 mph N/A   Clear
3:53 AM 35.6 °F 29.9 °F 17.6 °F 48% 29.97 in 10.0 mi NE 6.9 mph 16.1 mph N/A   Clear
4:13 AM 35.6 °F 28.0 °F 17.6 °F 48% 29.96 in 10.0 mi NE 10.4 mph 16.1 mph N/A   Clear
4:33 AM 35.6 °F 29.2 °F 17.6 °F 48% 29.96 in 10.0 mi NE 8.1 mph - N/A   Clear
4:52 AM 35.6 °F 28.0 °F 17.6 °F 48% 29.95 in 10.0 mi NE 10.4 mph 18.4 mph N/A   Clear
5:13 AM 35.6 °F 28.6 °F 17.6 °F 48% 29.95 in 10.0 mi NE 9.2 mph 20.7 mph N/A   Clear
5:33 AM 33.8 °F 27.0 °F 19.4 °F 56% 29.95 in 10.0 mi NE 8.1 mph 17.3 mph N/A   Clear
5:52 AM 33.8 °F 27.0 °F 19.4 °F 56% 29.95 in 10.0 mi NE 8.1 mph - N/A   Clear
6:13 AM 32.0 °F 24.2 °F 19.4 °F 60% 29.95 in 10.0 mi NE 9.2 mph - N/A   Clear
6:33 AM 32.0 °F 25.6 °F 19.4 °F 60% 29.95 in 10.0 mi NE 6.9 mph 19.6 mph N/A   Clear
6:52 AM 32.0 °F 22.5 °F 19.4 °F 60% 29.95 in 10.0 mi NE 12.7 mph 18.4 mph N/A   Clear
7:13 AM 32.0 °F 26.4 °F 19.4 °F 60% 29.95 in 10.0 mi NE 5.8 mph 18.4 mph N/A   Clear
7:33 AM 32.0 °F 22.1 °F 19.4 °F 60% 29.95 in 10.0 mi NE 13.8 mph 20.7 mph N/A   Clear
7:53 AM 33.8 °F 27.0 °F 19.4 °F 56% 29.94 in 10.0 mi NE 8.1 mph 23.0 mph N/A   Clear
8:13 AM 33.8 °F 26.4 °F 21.2 °F 60% 29.93 in 10.0 mi NNE 9.2 mph 18.4 mph N/A   Clear
8:33 AM 32.0 °F 24.8 °F 19.4 °F 60% 29.94 in 10.0 mi NNE 8.1 mph 17.3 mph N/A   Clear
8:53 AM 33.8 °F 26.4 °F 21.2 °F 60% 29.94 in 10.0 mi NNE 9.2 mph 19.6 mph N/A   Clear
9:13 AM 33.8 °F 27.0 °F 21.2 °F 60% 29.94 in 10.0 mi NNE 8.1 mph - N/A   Clear
9:33 AM 33.8 °F 26.4 °F 21.2 °F 60% 29.94 in 10.0 mi NNE 9.2 mph - N/A   Clear
9:53 AM 33.8 °F 25.8 °F 21.2 °F 60% 29.94 in 10.0 mi NNE 10.4 mph 17.3 mph N/A   Clear
10:13 AM 35.6 °F 28.6 °F 21.2 °F 56% 29.94 in 10.0 mi NNE 9.2 mph 17.3 mph N/A   Clear
10:33 AM 37.4 °F 30.8 °F 21.2 °F 52% 29.94 in 10.0 mi NE 9.2 mph 23.0 mph N/A   Clear
10:53 AM 37.4 °F 29.8 °F 23.0 °F 56% 29.94 in 10.0 mi NE 11.5 mph 17.3 mph N/A   Clear
11:13 AM 39.2 °F 32.5 °F 23.0 °F 52% 29.92 in 10.0 mi NNE 10.4 mph 17.3 mph N/A   Clear
11:33 AM 41.0 °F 35.2 °F 24.8 °F 53% 29.91 in 10.0 mi NNE 9.2 mph 20.7 mph N/A   Clear
11:53 AM 42.8 °F 36.2 °F 24.8 °F 49% 29.90 in 10.0 mi NE 12.7 mph 19.6 mph N/A   Clear
12:13 PM 42.8 °F 36.6 °F 24.8 °F 49% 29.89 in 10.0 mi NE 11.5 mph 24.2 mph N/A   Scattered Clouds
12:33 PM 44.6 °F 38.4 °F 24.8 °F 46% 29.88 in 10.0 mi NNE 12.7 mph 20.7 mph N/A   Scattered Clouds
12:52 PM 44.6 °F 38.1 °F 26.6 °F 49% 29.87 in 10.0 mi NNE 13.8 mph 21.9 mph N/A   Scattered Clouds
1:13 PM 44.6 °F 39.2 °F 26.6 °F 49% 29.86 in 10.0 mi NNE 10.4 mph 20.7 mph N/A   Scattered Clouds
1:33 PM 44.6 °F 37.8 °F 26.6 °F 49% 29.85 in 10.0 mi NNE 15.0 mph 23.0 mph N/A   Clear
1:52 PM 44.6 °F 38.1 °F 26.6 °F 49% 29.85 in 10.0 mi NE 13.8 mph 21.9 mph N/A   Clear
2:13 PM 44.6 °F 38.8 °F 26.6 °F 49% 29.85 in 10.0 mi NNE 11.5 mph 21.9 mph N/A   Clear
2:33 PM 44.6 °F 39.7 °F 26.6 °F 49% 29.86 in 10.0 mi NE 9.2 mph 21.9 mph N/A   Clear
2:53 PM 42.8 °F 35.8 °F 26.6 °F 53% 29.87 in 10.0 mi NE 13.8 mph 24.2 mph N/A   Clear
3:13 PM 41.0 °F 34.7 °F 30.2 °F 65% 29.86 in 10.0 mi NNE 10.4 mph 23.0 mph N/A   Drizzle
3:33 PM 39.2 °F 32.5 °F 33.8 °F 81% 29.87 in 10.0 mi NE 10.4 mph 23.0 mph N/A Rain Rain
3:53 PM 39.2 °F 33.0 °F 35.6 °F 87% 29.88 in 10.0 mi NE 9.2 mph - N/A Rain Light Rain
4:12 PM 37.4 °F 30.3 °F 35.6 °F 93% 29.89 in 10.0 mi NE 10.4 mph 17.3 mph 0.01 in Rain Light Rain
4:33 PM 37.4 °F 31.4 °F 35.6 °F 93% 29.89 in 5.0 mi NNE 8.1 mph 16.1 mph 0.03 in Rain Rain
4:52 PM 35.6 °F 29.9 °F 33.8 °F 93% 29.89 in 7.0 mi NNE 6.9 mph 18.4 mph 0.04 in Rain Rain
5:13 PM 35.6 °F 29.2 °F 33.8 °F 93% 29.89 in 7.0 mi NNE 8.1 mph - 0.01 in Rain Light Rain
5:33 PM 35.6 °F 28.0 °F 35.6 °F 100% 29.90 in 7.0 mi NE 10.4 mph 18.4 mph 0.03 in Rain Rain
5:52 PM 35.6 °F 28.6 °F 33.8 °F 93% 29.90 in 7.0 mi NNE 9.2 mph 16.1 mph 0.05 in Rain Rain
6:13 PM 35.6 °F 28.6 °F 33.8 °F 93% 29.91 in 5.0 mi NNE 9.2 mph 20.7 mph 0.02 in Rain Rain
6:33 PM 33.8 °F 27.0 °F 33.8 °F 100% 29.90 in 4.0 mi NNE 8.1 mph 19.6 mph 0.02 in Rain Light Rain
6:52 PM 33.8 °F 28.6 °F 33.8 °F 100% 29.90 in 4.0 mi NNE 5.8 mph - 0.03 in Snow Light Snow
7:00 PM 33.8 °F 27.0 °F 33.8 °F 100% 29.90 in 5.0 mi NNE 8.1 mph 16.1 mph N/A   Overcast
7:33 PM 33.8 °F 28.6 °F 32.0 °F 93% 29.89 in 2.0 mi North 5.8 mph - 0.02 in Snow Light Snow
7:52 PM 33.8 °F 27.0 °F 32.0 °F 93% 29.89 in 1.5 mi North 8.1 mph - 0.03 in Snow Light Snow
8:13 PM 32.0 °F 25.6 °F 32.0 °F 100% 29.89 in 2.5 mi North 6.9 mph - 0.01 in Snow Light Snow
8:33 PM 32.0 °F 26.4 °F 32.0 °F 100% 29.89 in 2.0 mi North 5.8 mph - 0.02 in Snow Light Snow
8:52 PM 32.0 °F 26.4 °F 32.0 °F 100% 29.89 in 2.5 mi North 5.8 mph - 0.03 in Snow Light Snow
9:13 PM 32.0 °F 27.5 °F 32.0 °F 100% 29.88 in 2.0 mi North 4.6 mph - 0.01 in Snow Light Snow
9:33 PM 32.0 °F 26.4 °F 32.0 °F 100% 29.88 in 2.5 mi North 5.8 mph - 0.02 in Snow Light Snow
9:52 PM 32.0 °F 26.4 °F 32.0 °F 100% 29.87 in 4.0 mi North 5.8 mph - 0.02 in Snow Light Snow
10:13 PM 32.0 °F 26.4 °F 32.0 °F 100% 29.87 in 7.0 mi NNE 5.8 mph - N/A Snow Light Snow
10:32 PM 33.8 °F 28.6 °F 32.0 °F 93% 29.86 in 10.0 mi NNE 5.8 mph - N/A   Overcast
10:53 PM 33.8 °F 27.0 °F 32.0 °F 93% 29.85 in 10.0 mi NNE 8.1 mph - N/A   Overcast
11:13 PM 33.8 °F 27.7 °F 32.0 °F 93% 29.85 in 10.0 mi NNE 6.9 mph - N/A   Overcast
11:32 PM 33.8 °F 28.6 °F 32.0 °F 93% 29.84 in 10.0 mi NNE 5.8 mph - N/A   Overcast
11:53 PM 33.8 °F 28.6 °F 33.8 °F 100% 29.83 in 10.0 mi NNE 5.8 mph - N/A   Overcast